Date String (YYYY-MM-DD hh:mm:ss) UTC,Instrument flags,Ambient pressure (hPa),Sample flow (lpm),Bypass flow (lpm),Sample temperature (°C),Ambient temperature (°C),ASC tube jacket temperature (°C),LED temperature (°C),Box temperature (°C),Sample RH (%),Span deviation,Mass concentration (μg/m³),Mass concentration (μg/m³),Mass concentration (μg/m³)
DateTimeUTC,F1_M11,P_M11,Q1_M11,Q2_M11,T1_M11,T2_M11,T3_M11,T4_M11,T5_M11,U1_M11,ZSPAN_M11,X2_M11,X0_M11,X1_M11
2023-02-18 13:00:00,,0821.4,5.00,0.00,22.2,21.6,00.0,31.0,24.0,06.1,0000.0,0001.02,0001.84,0000.59
2023-02-18 13:01:00,,0821.4,4.99,0.00,22.2,21.3,00.0,31.0,24.0,06.2,0000.0,0001.02,0001.82,0000.59
2023-02-18 13:02:00,,0821.4,5.01,0.00,22.2,21.0,00.0,31.0,23.9,05.8,0000.0,0001.04,0001.84,0000.59
2023-02-18 13:03:00,,0821.4,5.02,0.00,22.2,20.8,00.0,31.0,23.9,05.6,0000.0,0001.05,0002.08,0000.59
2023-02-18 13:04:00,,0821.4,4.97,0.00,22.2,20.7,00.0,31.0,23.8,05.7,0000.0,0001.07,0002.23,0000.59
2023-02-18 13:05:00,,0821.4,5.00,0.00,22.1,20.5,00.0,31.0,23.8,05.6,0000.0,0001.09,0002.28,0000.59
2023-02-18 13:06:00,,0821.4,4.99,0.00,22.1,20.4,00.0,31.0,23.8,05.6,0000.0,0001.08,0002.32,0000.58
2023-02-18 13:07:00,,0821.4,5.01,0.00,22.1,20.3,00.0,31.0,23.8,05.6,0000.0,0001.10,0002.42,0000.59
2023-02-18 13:08:00,,0821.5,5.00,0.00,22.1,20.3,00.0,31.0,23.7,05.3,0000.0,0001.11,0002.43,0000.60
2023-02-18 13:09:00,,0821.5,5.01,0.00,22.0,20.2,00.0,31.0,23.7,05.2,0000.0,0001.10,0002.42,0000.60
2023-02-18 13:10:00,,0821.5,5.01,0.00,22.0,20.2,00.0,31.0,23.7,05.0,0000.0,0001.06,0002.32,0000.59
2023-02-18 13:11:00,,0821.5,5.01,0.00,22.0,20.1,00.0,31.0,23.7,05.4,0000.0,0001.09,0002.40,0000.60
2023-02-18 13:12:00,,0821.6,5.01,0.00,22.0,20.1,00.0,31.0,23.6,05.3,0000.0,0001.11,0002.45,0000.60
2023-02-18 13:13:00,,0821.5,5.02,0.00,21.9,20.1,00.0,30.9,23.6,05.3,0000.0,0001.12,0002.54,0000.60
2023-02-18 13:14:00,,0821.6,5.03,0.00,21.9,20.5,00.0,30.9,23.6,05.4,0000.0,0001.14,0002.35,0000.60
2023-02-18 13:15:00,,0821.6,5.02,0.00,22.0,21.8,00.0,30.8,23.9,05.5,0000.0,0001.14,0002.24,0000.61
2023-02-18 13:16:00,,0821.5,4.97,0.00,22.2,22.9,00.0,30.8,24.2,05.2,0000.0,0001.12,0002.20,0000.60
2023-02-18 13:17:00,,0821.5,5.07,0.00,22.3,22.8,00.0,30.9,24.3,05.0,0000.0,0001.07,0002.04,0000.60
2023-02-18 13:18:00,,0821.5,4.98,0.00,22.3,22.2,00.0,31.0,24.2,05.4,0000.0,0001.04,0001.89,0000.60
2023-02-18 13:19:00,,0821.5,4.98,0.00,22.3,21.8,00.0,31.0,24.1,05.4,0000.0,0001.02,0001.87,0000.59
2023-02-18 13:20:00,,0821.5,4.98,0.00,22.2,21.4,00.0,31.0,24.0,05.2,0000.0,0001.01,0001.85,0000.59
2023-02-18 13:21:00,,0821.5,4.99,0.00,22.2,21.1,00.0,31.0,23.9,05.6,0000.0,0000.99,0001.77,0000.59
2023-02-18 13:22:00,,0821.6,5.01,0.00,22.2,20.9,00.0,31.1,23.9,06.4,0000.0,0001.01,0001.83,0000.58
2023-02-18 13:23:00,,0821.7,5.00,0.00,22.2,20.7,00.0,31.0,23.9,06.6,0000.0,0001.04,0001.96,0000.59
2023-02-18 13:24:00,,0821.6,5.00,0.00,22.2,20.6,00.0,31.0,23.9,07.0,0000.0,0001.07,0003.29,0000.61
2023-02-18 13:25:00,,0821.6,5.00,0.00,22.2,20.5,00.0,31.0,23.8,07.8,0000.0,0001.17,0004.57,0000.64
2023-02-18 13:26:00,,0821.7,4.98,0.00,22.1,20.5,00.0,31.0,23.8,07.8,0000.0,0001.23,0005.22,0000.65
2023-02-18 13:27:00,,0821.6,5.03,0.00,22.1,20.5,00.0,31.0,23.8,08.0,0000.0,0001.30,0006.56,0000.67
2023-02-18 13:28:00,,0821.6,4.99,0.00,22.1,20.5,00.0,31.0,23.8,07.2,0000.0,0001.36,0007.05,0000.67
2023-02-18 13:29:00,,0821.6,4.99,0.00,22.1,20.4,00.0,31.0,23.8,07.0,0000.0,0001.38,0007.10,0000.68
2023-02-18 13:30:00,,0821.6,5.00,0.00,22.1,20.4,00.0,31.0,23.8,05.8,0000.0,0001.39,0007.21,0000.68
2023-02-18 13:31:00,,0821.7,5.01,0.00,22.1,20.4,00.0,31.0,23.8,06.2,0000.0,0001.41,0007.44,0000.68
2023-02-18 13:32:00,,0821.7,4.95,0.00,22.1,20.3,00.0,31.0,23.8,06.7,0000.0,0001.46,0007.63,0000.69
2023-02-18 13:33:00,,0821.6,4.99,0.00,22.0,20.3,00.0,31.0,23.8,05.9,0000.0,0001.48,0007.91,0000.70
2023-02-18 13:34:00,,0821.7,5.01,0.00,22.0,20.3,00.0,31.0,23.7,05.6,0000.0,0001.44,0007.87,0000.69
2023-02-18 13:35:00,,0821.7,5.02,0.00,22.0,20.3,00.0,31.0,23.7,05.8,0000.0,0001.40,0007.88,0000.67
2023-02-18 13:36:00,,0821.6,5.00,0.00,22.0,20.4,00.0,30.9,23.7,05.6,0000.0,0001.30,0006.69,0000.64
2023-02-18 13:37:00,,0821.6,5.02,0.00,22.1,21.4,00.0,30.9,24.0,04.9,0000.0,0001.24,0006.27,0000.62
2023-02-18 13:38:00,,0821.6,4.95,0.00,22.2,22.7,00.0,30.8,24.3,04.8,0000.0,0001.19,0005.37,0000.61
2023-02-18 13:39:00,,0821.5,4.99,0.00,22.4,23.2,00.0,30.9,24.5,04.5,0000.0,0001.15,0004.80,0000.60
2023-02-18 13:40:00,,0821.4,5.00,0.00,22.4,22.7,00.0,31.0,24.4,04.4,0000.0,0001.14,0006.16,0000.59
2023-02-18 13:41:00,,0821.4,4.99,0.00,22.4,22.1,00.0,31.1,24.3,04.3,0000.0,0001.14,0006.19,0000.59
2023-02-18 13:42:00,,0821.4,5.02,0.00,22.4,21.6,00.0,31.1,24.2,04.5,0000.0,0001.12,0006.03,0000.59
2023-02-18 13:43:00,,0821.4,4.97,0.00,22.4,21.3,00.0,31.1,24.1,04.5,0000.0,0001.09,0005.57,0000.58
2023-02-18 13:44:00,,0821.4,4.98,0.00,22.3,21.1,00.0,31.1,24.0,04.5,0000.0,0001.05,0005.08,0000.57
2023-02-18 13:45:00,,0821.4,5.03,0.00,22.3,20.9,00.0,31.1,24.0,04.1,0000.0,0001.06,0004.99,0000.57
2023-02-18 13:46:00,,0821.5,4.98,0.00,22.3,20.7,00.0,31.1,24.0,04.2,0000.0,0001.09,0004.27,0000.57
2023-02-18 13:47:00,,0821.4,5.00,0.00,22.3,20.6,00.0,31.1,24.0,04.2,0000.0,0001.12,0004.13,0000.57
2023-02-18 13:48:00,,0821.3,5.00,0.00,22.2,20.4,00.0,31.1,23.9,04.0,0000.0,0001.08,0003.92,0000.58
2023-02-18 13:49:00,,0821.4,4.99,0.00,22.2,20.4,00.0,31.1,23.8,03.7,0000.0,0001.07,0003.97,0000.57
2023-02-18 13:50:00,,0821.4,5.00,0.00,22.2,20.3,00.0,31.1,23.8,04.2,0000.0,0001.05,0003.68,0000.58
2023-02-18 13:51:00,,0821.4,5.00,0.00,22.1,20.3,00.0,31.1,23.7,04.2,0000.0,0001.05,0002.20,0000.57
2023-02-18 13:52:00,,0821.4,4.98,0.00,22.1,20.1,00.0,31.1,23.7,04.4,0000.0,0001.04,0002.08,0000.57
2023-02-18 13:53:00,,0821.3,5.01,0.00,22.0,20.1,00.0,31.0,23.6,04.6,0000.0,0001.02,0002.05,0000.57
2023-02-18 13:54:00,,0821.4,4.96,0.00,22.0,20.0,00.0,31.0,23.6,04.5,0000.0,0001.01,0002.06,0000.57
2023-02-18 13:55:00,,0821.2,5.00,0.00,22.0,20.0,00.0,31.0,23.6,04.4,0000.0,0001.04,0002.13,0000.57
2023-02-18 13:56:00,,0821.2,5.01,0.00,22.0,20.3,00.0,31.0,23.6,04.0,0000.0,0001.00,0002.04,0000.57
2023-02-18 13:57:00,,0821.2,4.99,0.00,22.0,21.4,00.0,30.9,23.9,04.0,0000.0,0000.93,0001.85,0000.57
2023-02-18 13:58:00,,0821.3,4.93,0.00,22.2,22.7,00.0,30.8,24.2,03.8,0000.0,0000.90,0002.31,0000.57
2023-02-18 13:59:00,,0821.3,4.98,0.00,22.3,22.8,00.0,30.9,24.3,04.2,0000.0,0000.92,0002.99,0000.56
